Location: Carella
(45.8167°N, 9.2667°E)
Time: 11:06:05
(UTC+00:00)

STARLINK-1217 - Pass Details

Date: 30 March 2020
Orbit: 378 x 381 km, 53.0° (Epoch: 26 May)

Event Time Altitude Azimuth Distance (km) Brightness Sun altitude
Rises 18:32:15 0° 249° (WSW) 2,256 7.7 -8.2°
Reaches altitude 10° 18:34:20 10° 254° (WSW) 1,405 6.7 -8.5°
Maximum altitude 18:37:25 55° 333° (NNW) 469 3.5 -9.1°
Drops below altitude 10° 18:40:31 10° 53° (NE) 1,409 5.4 -9.6°
Enters shadow 18:41:27 - 56° (NE) 1,791 5.9 -9.7°
